FDX1511 KMEM-KDFW

Flight info

Callsign FDX1511
Flight time 1h 13m
Altitude 34000
Route CHLDR5 ANSWA FEWWW SEEVR4
Aircraft B752/M-SDE2E3FGHIJ3J4J7RWXY/LB1

Departure

Time 2026-05-08 03:40
Airport Memphis International Airport (KMEM)

Arrival

Time 2026-05-08 04:54
Airport Dallas Fort Worth International Airport (KDFW)
Time Latitude Longitude Altitude Speed Heading
2026-05-08 02:47 35.06364 -89.95782 281 ft 0 kts
2026-05-08 03:20 35.06362 -89.95782 280 ft 3 kts
2026-05-08 03:21 35.06346 -89.95783 280 ft 2 kts 11°
2026-05-08 03:21 35.06332 -89.95789 280 ft 2 kts 25°
2026-05-08 03:21 35.06319 -89.95798 280 ft 2 kts 38°
2026-05-08 03:21 35.06308 -89.95812 280 ft 2 kts 52°
2026-05-08 03:22 35.06300 -89.95827 280 ft 2 kts 65°
2026-05-08 03:22 35.06296 -89.95844 280 ft 2 kts 79°
2026-05-08 03:22 35.06295 -89.95856 280 ft 0 kts 89°
2026-05-08 03:22 35.06295 -89.95861 280 ft 0 kts 90°
2026-05-08 03:25 35.06295 -89.95855 280 ft 5 kts 90°
2026-05-08 03:25 35.06295 -89.95770 281 ft 10 kts 88°
2026-05-08 03:26 35.06296 -89.95697 283 ft 12 kts 90°
2026-05-08 03:26 35.06260 -89.95525 284 ft 22 kts 153°
2026-05-08 03:26 35.06115 -89.95523 287 ft 19 kts 181°
2026-05-08 03:26 35.05986 -89.95529 289 ft 15 kts 187°
2026-05-08 03:27 35.05859 -89.95579 291 ft 29 kts 200°
2026-05-08 03:27 35.05653 -89.95628 294 ft 28 kts 195°
2026-05-08 03:27 35.05615 -89.95810 290 ft 24 kts 276°
2026-05-08 03:27 35.05627 -89.96139 277 ft 49 kts 272°
2026-05-08 03:28 35.05641 -89.96567 270 ft 50 kts 274°
2026-05-08 03:28 35.05649 -89.96868 269 ft 20 kts 273°
2026-05-08 03:28 35.05653 -89.97035 270 ft 18 kts 272°
2026-05-08 03:28 35.05656 -89.97263 270 ft 30 kts 274°
2026-05-08 03:29 35.05657 -89.97456 267 ft 12 kts 243°
2026-05-08 03:29 35.05611 -89.97482 268 ft 5 kts 184°
2026-05-08 03:29 35.05535 -89.97484 271 ft 15 kts 177°
2026-05-08 03:29 35.05394 -89.97479 275 ft 24 kts 180°
2026-05-08 03:30 35.05045 -89.97469 282 ft 25 kts 177°
2026-05-08 03:30 35.04694 -89.97468 288 ft 25 kts 179°
2026-05-08 03:31 35.04239 -89.97458 299 ft 33 kts 179°
2026-05-08 03:31 35.03636 -89.97444 315 ft 42 kts 179°
2026-05-08 03:32 35.03350 -89.97438 319 ft 39 kts 178°
2026-05-08 03:32 35.03086 -89.97435 323 ft 36 kts 179°
2026-05-08 03:32 35.02813 -89.97429 323 ft 49 kts 179°
2026-05-08 03:32 35.02575 -89.97424 326 ft 25 kts 179°
2026-05-08 03:33 35.02448 -89.97427 328 ft 6 kts 199°
2026-05-08 03:33 35.02439 -89.97432 329 ft 0 kts 214°
2026-05-08 03:38 35.02427 -89.97452 330 ft 5 kts 248°
2026-05-08 03:39 35.02422 -89.97495 333 ft 5 kts 269°
2026-05-08 03:39 35.02432 -89.97534 335 ft 4 kts 313°
2026-05-08 03:39 35.02471 -89.97551 335 ft 7 kts 354°
2026-05-08 03:39 35.02634 -89.97560 331 ft 47 kts 359°
2026-05-08 03:40 35.03038 -89.97562 327 ft 91 kts 358°
2026-05-08 03:40 35.03964 -89.97580 378 ft 168 kts 358°
2026-05-08 03:40 35.05278 -89.97614 858 ft 208 kts 359°
2026-05-08 03:40 35.06711 -89.97669 2197 ft 205 kts 358°
2026-05-08 03:41 35.08034 -89.97750 3277 ft 195 kts 356°
2026-05-08 03:41 35.09391 -89.97877 4084 ft 197 kts 354°
2026-05-08 03:41 35.10719 -89.98031 4811 ft 193 kts 352°
2026-05-08 03:41 35.12022 -89.98319 4739 ft 187 kts 337°
2026-05-08 03:42 35.13112 -89.99201 4651 ft 201 kts 306°
2026-05-08 03:42 35.13770 -90.00826 5084 ft 222 kts 295°
2026-05-08 03:42 35.14503 -90.02528 5728 ft 235 kts 295°
2026-05-08 03:42 35.14801 -90.04552 6278 ft 256 kts 269°
2026-05-08 03:43 35.14680 -90.06739 7065 ft 263 kts 271°
2026-05-08 03:43 35.14656 -90.08952 7931 ft 266 kts 272°
2026-05-08 03:43 35.14668 -90.11216 8941 ft 269 kts 273°
2026-05-08 03:43 35.14648 -90.13435 9906 ft 269 kts 264°
2026-05-08 03:44 35.14034 -90.15630 10515 ft 285 kts 248°
2026-05-08 03:44 35.13144 -90.17873 10920 ft 303 kts 248°
2026-05-08 03:44 35.12207 -90.20267 11315 ft 320 kts 248°
2026-05-08 03:44 35.11211 -90.22791 11677 ft 337 kts 248°
2026-05-08 03:45 35.10182 -90.25326 12570 ft 335 kts 247°
2026-05-08 03:45 35.09137 -90.27863 13261 ft 339 kts 247°
2026-05-08 03:45 35.08088 -90.30405 14061 ft 339 kts 247°
2026-05-08 03:45 35.07024 -90.32986 14803 ft 341 kts 247°
2026-05-08 03:46 35.05968 -90.35545 15495 ft 344 kts 247°
2026-05-08 03:46 35.04893 -90.38145 16276 ft 344 kts 247°
2026-05-08 03:46 35.03812 -90.40758 16929 ft 348 kts 247°
2026-05-08 03:46 35.02732 -90.43368 17666 ft 348 kts 247°
2026-05-08 03:47 35.01630 -90.46028 18277 ft 352 kts 247°
2026-05-08 03:47 35.00534 -90.48673 18920 ft 353 kts 247°
2026-05-08 03:47 34.99425 -90.51346 19547 ft 355 kts 247°
2026-05-08 03:47 34.98312 -90.54026 20186 ft 356 kts 247°
2026-05-08 03:48 34.97196 -90.56710 20769 ft 358 kts 247°
2026-05-08 03:48 34.96066 -90.59431 21279 ft 361 kts 247°
2026-05-08 03:48 34.94933 -90.62152 21939 ft 360 kts 248°
2026-05-08 03:48 34.93798 -90.64878 22412 ft 364 kts 247°
2026-05-08 03:49 34.92648 -90.67637 23006 ft 365 kts 246°
2026-05-08 03:49 34.91495 -90.70399 23551 ft 367 kts 247°
2026-05-08 03:49 34.90549 -90.73205 24203 ft 360 kts 256°
2026-05-08 03:49 34.90005 -90.76184 24669 ft 361 kts 261°
2026-05-08 03:50 34.89536 -90.79146 25385 ft 357 kts 261°
2026-05-08 03:50 34.89064 -90.82142 25823 ft 360 kts 261°
2026-05-08 03:50 34.88602 -90.85111 26316 ft 361 kts 261°
2026-05-08 03:50 34.88137 -90.88105 26927 ft 358 kts 261°
2026-05-08 03:51 34.87681 -90.91062 27303 ft 361 kts 262°
2026-05-08 03:51 34.87218 -90.94071 27745 ft 362 kts 262°
2026-05-08 03:51 34.86752 -90.97083 28277 ft 360 kts 262°
2026-05-08 03:51 34.86293 -91.00060 28785 ft 359 kts 262°
2026-05-08 03:52 34.85836 -91.03027 29053 ft 362 kts 261°
2026-05-08 03:52 34.85372 -91.06020 29588 ft 361 kts 262°
2026-05-08 03:52 34.84907 -91.09034 29971 ft 362 kts 262°
2026-05-08 03:52 34.84446 -91.12015 30255 ft 365 kts 261°
2026-05-08 03:53 34.83970 -91.15073 30585 ft 366 kts 261°
2026-05-08 03:53 34.83503 -91.18082 30938 ft 367 kts 261°
2026-05-08 03:53 34.83025 -91.21149 31542 ft 361 kts 259°
2026-05-08 03:53 34.82567 -91.24102 32041 ft 357 kts 259°
2026-05-08 03:54 34.82101 -91.27065 32408 ft 356 kts 259°
2026-05-08 03:54 34.81635 -91.30042 32806 ft 354 kts 259°
2026-05-08 03:54 34.81179 -91.32945 33241 ft 351 kts 258°
2026-05-08 03:54 34.80719 -91.35878 33613 ft 350 kts 258°
2026-05-08 03:55 34.80265 -91.38755 33929 ft 350 kts 258°
2026-05-08 03:55 34.79801 -91.41704 34046 ft 351 kts 259°
2026-05-08 03:55 34.79342 -91.44611 34038 ft 349 kts 258°
2026-05-08 03:56 34.78434 -91.50356 34041 ft 345 kts 258°
2026-05-08 03:56 34.77526 -91.56079 34045 ft 347 kts 259°
2026-05-08 03:57 34.76610 -91.61827 34039 ft 348 kts 258°
2026-05-08 03:57 34.75688 -91.67596 34069 ft 349 kts 258°
2026-05-08 03:58 34.74755 -91.73419 34058 ft 349 kts 257°
2026-05-08 03:58 34.73681 -91.79142 34063 ft 347 kts 253°
2026-05-08 03:59 34.72300 -91.84768 34055 ft 347 kts 254°
2026-05-08 03:59 34.70918 -91.90391 34056 ft 350 kts 253°
2026-05-08 04:00 34.69526 -91.96026 34055 ft 350 kts 253°
2026-05-08 04:00 34.68112 -92.01724 34055 ft 352 kts 253°
2026-05-08 04:01 34.66705 -92.07390 34053 ft 351 kts 253°
2026-05-08 04:01 34.65292 -92.13045 34056 ft 350 kts 254°
2026-05-08 04:02 34.63891 -92.18661 34055 ft 352 kts 253°
2026-05-08 04:02 34.62463 -92.24369 34055 ft 351 kts 253°
2026-05-08 04:03 34.61052 -92.29988 34054 ft 351 kts 254°
2026-05-08 04:03 34.58915 -92.38482 34052 ft 352 kts 254°
2026-05-08 04:04 34.57479 -92.44179 34045 ft 352 kts 253°
2026-05-08 04:04 34.56046 -92.49837 34047 ft 354 kts 253°
2026-05-08 04:05 34.54601 -92.55535 34045 ft 352 kts 254°
2026-05-08 04:05 34.53169 -92.61179 34036 ft 354 kts 253°
2026-05-08 04:06 34.51714 -92.66890 34059 ft 356 kts 253°
2026-05-08 04:06 34.50260 -92.72601 34052 ft 355 kts 252°
2026-05-08 04:07 34.48794 -92.78326 34049 ft 356 kts 253°
2026-05-08 04:07 34.47345 -92.83988 34046 ft 354 kts 252°
2026-05-08 04:08 34.45884 -92.89677 34046 ft 355 kts 252°
2026-05-08 04:08 34.44406 -92.95419 34047 ft 357 kts 254°
2026-05-08 04:09 34.42942 -93.01101 34045 ft 355 kts 252°
2026-05-08 04:09 34.41461 -93.06834 34048 ft 356 kts 252°
2026-05-08 04:10 34.39983 -93.12533 34047 ft 355 kts 252°
2026-05-08 04:10 34.38506 -93.18229 34044 ft 359 kts 252°
2026-05-08 04:11 34.37015 -93.23962 34039 ft 356 kts 252°
2026-05-08 04:11 34.35533 -93.29642 34033 ft 357 kts 253°
2026-05-08 04:12 34.34035 -93.35386 34028 ft 357 kts 253°
2026-05-08 04:12 34.32543 -93.41086 34030 ft 358 kts 253°
2026-05-08 04:13 34.31036 -93.46826 34029 ft 356 kts 252°
2026-05-08 04:13 34.29541 -93.52520 34030 ft 356 kts 252°
2026-05-08 04:14 34.28035 -93.58231 34036 ft 357 kts 253°
2026-05-08 04:14 34.26540 -93.63896 34032 ft 357 kts 252°
2026-05-08 04:15 34.25027 -93.69611 34056 ft 359 kts 252°
2026-05-08 04:15 34.23508 -93.75346 34051 ft 356 kts 252°
2026-05-08 04:16 34.22000 -93.81016 34062 ft 356 kts 251°
2026-05-08 04:16 34.20481 -93.86725 34051 ft 358 kts 252°
2026-05-08 04:17 34.18890 -93.92402 34048 ft 356 kts 250°
2026-05-08 04:17 34.17179 -93.97984 34047 ft 357 kts 250°
2026-05-08 04:18 34.15457 -94.03605 34054 ft 358 kts 251°
2026-05-08 04:18 34.13724 -94.09255 34049 ft 358 kts 251°
2026-05-08 04:19 34.11998 -94.14873 34047 ft 359 kts 250°
2026-05-08 04:19 34.10266 -94.20493 34040 ft 359 kts 250°
2026-05-08 04:20 34.08535 -94.26108 34042 ft 358 kts 250°
2026-05-08 04:20 34.06791 -94.31751 34043 ft 359 kts 250°
2026-05-08 04:21 34.05050 -94.37376 34043 ft 360 kts 250°
2026-05-08 04:21 34.03300 -94.43018 34044 ft 360 kts 250°
2026-05-08 04:22 34.01541 -94.48682 34041 ft 364 kts 249°
2026-05-08 04:22 33.99778 -94.54343 34032 ft 361 kts 249°
2026-05-08 04:23 33.98006 -94.60017 34031 ft 364 kts 250°
2026-05-08 04:23 33.96229 -94.65706 34032 ft 363 kts 250°
2026-05-08 04:24 33.94443 -94.71407 34051 ft 365 kts 248°
2026-05-08 04:24 33.92662 -94.77087 34046 ft 364 kts 250°
2026-05-08 04:25 33.90876 -94.82773 34048 ft 366 kts 249°
2026-05-08 04:25 33.89077 -94.88479 34050 ft 363 kts 250°
2026-05-08 04:26 33.87289 -94.94153 34057 ft 357 kts 249°
2026-05-08 04:26 33.86427 -94.96883 33877 ft 343 kts 249°
2026-05-08 04:26 33.85594 -94.99514 33227 ft 341 kts 250°
2026-05-08 04:27 33.84745 -95.02196 32699 ft 339 kts 249°
2026-05-08 04:27 33.83919 -95.04802 32234 ft 339 kts 250°
2026-05-08 04:27 33.83082 -95.07443 31799 ft 341 kts 250°
2026-05-08 04:27 33.82229 -95.10134 31387 ft 347 kts 250°
2026-05-08 04:28 33.81368 -95.12844 30965 ft 350 kts 250°
2026-05-08 04:28 33.80495 -95.15585 30551 ft 350 kts 250°
2026-05-08 04:28 33.79635 -95.18291 30098 ft 352 kts 250°
2026-05-08 04:28 33.78749 -95.21070 29662 ft 354 kts 250°
2026-05-08 04:29 33.77869 -95.23826 29231 ft 355 kts 251°
2026-05-08 04:29 33.76997 -95.26562 28810 ft 353 kts 250°
2026-05-08 04:29 33.76112 -95.29327 28384 ft 352 kts 250°
2026-05-08 04:29 33.75241 -95.32046 27955 ft 350 kts 251°
2026-05-08 04:30 33.74365 -95.34772 27540 ft 350 kts 250°
2026-05-08 04:30 33.73487 -95.37502 27102 ft 351 kts 251°
2026-05-08 04:30 33.72611 -95.40217 26665 ft 351 kts 251°
2026-05-08 04:30 33.71737 -95.42927 26239 ft 351 kts 251°
2026-05-08 04:31 33.70858 -95.45649 25807 ft 351 kts 251°
2026-05-08 04:31 33.69971 -95.48392 25382 ft 350 kts 251°
2026-05-08 04:31 33.69094 -95.51104 24971 ft 349 kts 251°
2026-05-08 04:31 33.68222 -95.53796 24540 ft 349 kts 251°
2026-05-08 04:32 33.67340 -95.56511 24104 ft 349 kts 251°
2026-05-08 04:32 33.66465 -95.59207 23683 ft 351 kts 251°
2026-05-08 04:32 33.65586 -95.61910 23259 ft 351 kts 251°
2026-05-08 04:32 33.64702 -95.64626 22821 ft 350 kts 251°
2026-05-08 04:33 33.63818 -95.67342 22399 ft 348 kts 251°
2026-05-08 04:33 33.62940 -95.70036 21980 ft 347 kts 251°
2026-05-08 04:33 33.62064 -95.72726 21554 ft 345 kts 251°
2026-05-08 04:33 33.61198 -95.75382 21168 ft 344 kts 250°
2026-05-08 04:34 33.60325 -95.78059 20777 ft 344 kts 251°
2026-05-08 04:34 33.59461 -95.80699 20387 ft 341 kts 251°
2026-05-08 04:34 33.58600 -95.83337 19992 ft 339 kts 250°
2026-05-08 04:34 33.57741 -95.85963 19602 ft 338 kts 250°
2026-05-08 04:35 33.56886 -95.88572 19205 ft 338 kts 250°
2026-05-08 04:35 33.56033 -95.91176 18807 ft 336 kts 250°
2026-05-08 04:35 33.55181 -95.93773 18408 ft 334 kts 250°
2026-05-08 04:35 33.54332 -95.96358 18014 ft 334 kts 250°
2026-05-08 04:36 33.53490 -95.98920 17626 ft 333 kts 250°
2026-05-08 04:36 33.52639 -96.01507 17234 ft 331 kts 250°
2026-05-08 04:36 33.51802 -96.04049 16838 ft 330 kts 250°
2026-05-08 04:36 33.50962 -96.06601 16443 ft 329 kts 250°
2026-05-08 04:37 33.50123 -96.09145 16048 ft 328 kts 250°
2026-05-08 04:37 33.49299 -96.11643 15665 ft 326 kts 250°
2026-05-08 04:37 33.48462 -96.14177 15252 ft 324 kts 250°
2026-05-08 04:37 33.47646 -96.16650 14863 ft 324 kts 250°
2026-05-08 04:38 33.46818 -96.19151 14434 ft 324 kts 250°
2026-05-08 04:38 33.45983 -96.21666 13947 ft 321 kts 250°
2026-05-08 04:38 33.45197 -96.24033 13725 ft 294 kts 251°
2026-05-08 04:38 33.44215 -96.26170 13806 ft 301 kts 236°
2026-05-08 04:39 33.42831 -96.28159 13585 ft 316 kts 233°
2026-05-08 04:39 33.41431 -96.30127 13248 ft 309 kts 233°
2026-05-08 04:39 33.40052 -96.32046 13222 ft 298 kts 233°
2026-05-08 04:39 33.38680 -96.33954 13224 ft 305 kts 233°
2026-05-08 04:40 33.37294 -96.35862 13190 ft 300 kts 232°
2026-05-08 04:40 33.35953 -96.37596 13188 ft 278 kts 223°
2026-05-08 04:40 33.34338 -96.38999 12949 ft 297 kts 225°
2026-05-08 04:40 33.32980 -96.40880 12423 ft 294 kts 243°
2026-05-08 04:41 33.32281 -96.43069 11885 ft 277 kts 262°
2026-05-08 04:41 33.32017 -96.45277 11265 ft 267 kts 259°
2026-05-08 04:41 33.31575 -96.47388 10989 ft 262 kts 254°
2026-05-08 04:41 33.30989 -96.49506 10659 ft 276 kts 251°
2026-05-08 04:42 33.30303 -96.51654 10094 ft 275 kts 249°
2026-05-08 04:42 33.29594 -96.53703 9896 ft 255 kts 248°
2026-05-08 04:42 33.28930 -96.55585 9793 ft 248 kts 252°
2026-05-08 04:42 33.28650 -96.57676 9579 ft 262 kts 267°
2026-05-08 04:43 33.28564 -96.59850 9253 ft 265 kts 266°
2026-05-08 04:43 33.28458 -96.62026 8901 ft 259 kts 266°
2026-05-08 04:43 33.28359 -96.64153 8583 ft 255 kts 266°
2026-05-08 04:43 33.28260 -96.66270 8308 ft 256 kts 265°
2026-05-08 04:44 33.28160 -96.68407 8032 ft 259 kts 266°
2026-05-08 04:44 33.28061 -96.70528 7805 ft 255 kts 266°
2026-05-08 04:44 33.27943 -96.72635 7329 ft 259 kts 259°
2026-05-08 04:44 33.27340 -96.74641 6956 ft 258 kts 243°
2026-05-08 04:45 33.26474 -96.76513 6633 ft 256 kts 241°
2026-05-08 04:45 33.25607 -96.78352 6233 ft 256 kts 241°
2026-05-08 04:45 33.24733 -96.80231 5802 ft 258 kts 241°
2026-05-08 04:45 33.23877 -96.82102 5456 ft 257 kts 242°
2026-05-08 04:46 33.23026 -96.83961 5126 ft 256 kts 242°
2026-05-08 04:46 33.22171 -96.85838 4770 ft 255 kts 242°
2026-05-08 04:46 33.21335 -96.87695 4369 ft 256 kts 241°
2026-05-08 04:46 33.20501 -96.89552 4043 ft 255 kts 242°
2026-05-08 04:47 33.19691 -96.91383 3971 ft 243 kts 242°
2026-05-08 04:47 33.18877 -96.93214 4004 ft 257 kts 242°
2026-05-08 04:47 33.18045 -96.95100 3987 ft 258 kts 242°
2026-05-08 04:47 33.17237 -96.96955 3982 ft 246 kts 242°
2026-05-08 04:48 33.16421 -96.98734 4001 ft 245 kts 232°
2026-05-08 04:48 33.15181 -97.00093 4013 ft 245 kts 214°
2026-05-08 04:48 33.13782 -97.01193 3976 ft 234 kts 212°
2026-05-08 04:48 33.12446 -97.02226 3973 ft 219 kts 207°
2026-05-08 04:49 33.11058 -97.02614 4003 ft 200 kts 174°
2026-05-08 04:49 33.09722 -97.02458 4003 ft 185 kts 176°
2026-05-08 04:49 33.08459 -97.02406 4083 ft 178 kts 180°
2026-05-08 04:49 33.07198 -97.02432 3710 ft 184 kts 182°
2026-05-08 04:50 33.05950 -97.02530 3605 ft 167 kts 183°
2026-05-08 04:50 33.04838 -97.02592 3424 ft 157 kts 180°
2026-05-08 04:50 33.03773 -97.02629 3187 ft 147 kts 179°
2026-05-08 04:50 33.02757 -97.02634 2855 ft 149 kts 177°
2026-05-08 04:51 33.01746 -97.02599 2535 ft 145 kts 176°
2026-05-08 04:51 33.00741 -97.02557 2196 ft 147 kts 176°
2026-05-08 04:51 32.99723 -97.02556 1927 ft 144 kts 180°
2026-05-08 04:51 32.98741 -97.02588 1714 ft 139 kts 179°
2026-05-08 04:52 32.97754 -97.02583 1539 ft 139 kts 178°
2026-05-08 04:52 32.96782 -97.02581 1420 ft 139 kts 179°
2026-05-08 04:52 32.95829 -97.02595 1292 ft 137 kts 180°
2026-05-08 04:52 32.94853 -97.02589 1134 ft 140 kts 178°
2026-05-08 04:53 32.93868 -97.02594 1025 ft 141 kts 181°
2026-05-08 04:53 32.92883 -97.02601 871 ft 144 kts 179°
2026-05-08 04:53 32.91878 -97.02599 678 ft 142 kts 180°
2026-05-08 04:53 32.90897 -97.02602 564 ft 134 kts 181°
2026-05-08 04:54 32.90171 -97.02610 563 ft 73 kts 178°
2026-05-08 04:54 32.89826 -97.02609 563 ft 16 kts 181°
2026-05-08 04:54 32.89817 -97.02609 562 ft 0 kts 181°
2026-05-08 04:54 32.89697 -97.02625 561 ft 38 kts 194°
2026-05-08 04:55 32.89449 -97.02766 564 ft 36 kts 210°
2026-05-08 04:55 32.89410 -97.02793 565 ft 0 kts 203°
2026-05-08 04:56 32.89382 -97.02801 564 ft 6 kts 188°
2026-05-08 04:56 32.89292 -97.02805 564 ft 28 kts 181°
2026-05-08 04:56 32.89027 -97.02808 564 ft 39 kts 178°
2026-05-08 04:57 32.88757 -97.02807 565 ft 36 kts 181°
2026-05-08 04:57 32.88703 -97.02807 566 ft 9 kts 175°
2026-05-08 04:57 32.88602 -97.02731 565 ft 19 kts 93°
2026-05-08 04:57 32.88600 -97.02560 561 ft 30 kts 91°
2026-05-08 04:58 32.88598 -97.02358 557 ft 6 kts 90°
2026-05-08 04:58 32.88612 -97.02310 556 ft 6 kts 46°
2026-05-08 04:58 32.88652 -97.02276 554 ft 7 kts 39°
2026-05-08 04:58 32.88674 -97.02222 553 ft 8 kts 77°
2026-05-08 04:59 32.88705 -97.02176 551 ft 7 kts 15°
2026-05-08 04:59 32.88730 -97.02173 551 ft 0 kts